Other Public Products
Issued by NWS Charleston, SC

Home | Current Version | Previous Version | Text Only | Print | Product List | Glossary On
Versions: 1 2 3 4 5 6 7 8 9 10 11 12 13 14 15 16 17 18 19 20 21 22 23 24 25 26 27 28 29 30 31 32 33 34 35 36 37 38 39 40 41 42 43 44 45 46 47 48 49 50
000
FPUS82 KCHS 210227
OPUCHS

TEST...KCHS/KSAV Gateway Observations...TEST
National Weather Service Charleston SC
1000 PM EDT FRI APR 20 2018

NOTE: "fair" indicates few or no clouds below 12,000 feet with no
significant weather and/or obstructions to visibility.

SCZ050-WAZ558-NCZ071-TXZ119-213-PAZ071-DCZ001-FLZ074-172-MI076-
NYZ176-178-MAZ016-IL014-TNZ027-NJZ106-GAZ044-MD014-210300-

...Gateway Observations for Charleston International...

CITY           SKY/WX    TMP DP  RH WIND       PRES   REMARKS
Chas Airport   FAIR      56  41  57 E6        30.32R
Seattle        CLOUDY    56  36  47 W7        30.16F
Charlotte      FAIR      55  31  39 CALM      30.32R
Dallas DFW     PTCLDY    63  43  48 SE14      30.05R
Dallas Love    PTCLDY    64  43  46 SE15      30.06F
Philladelphia  FAIR      45  23  42 N15G23    30.38R
Wash National  FAIR      53  26  35 N7        30.36R
Baltimore      FAIR      48  27  44 W3        30.33R
Miami          FAIR      77  67  71 E9        30.12R
Detroit        FAIR      46  28  49 E5        30.46R
Newark         FAIR      44  23  43 NW16G24   30.35R
Laguardia      FAIR      44  24  45 N13       30.34R
J F K          FAIR      42  23  46 N20       30.35R
Boston Logan   FAIR      43  27  53 NW13G23   30.25R
Ft. Lauderdale FAIR      77  67  71 E12       30.11R
Chicago O`Hare MOCLDY    49  11  21 E6        30.44R
Chicago Midway MOCLDY    48  13  24 E5        30.44R
Houston Bush   MOCLDY    61  50  67 SE9       30.12S
Houston Hobby  CLOUDY    62  56  80 E9        30.10F
Nashville      PTCLDY    56  32  40 N9        30.31R
Atlanta        FAIR      60  35  39 SE3       30.29R

$$

GAZ044-118-TXZ119-213-NCZ071-DCZ001-MDZ014-506-PAZ021-071-NJZ106-
NYZ176-178-MAZ106-OHZ011-021-055-MIZ076-KYZ091-ILZ014-INZ047-
MNZ060-ONZ431-210300-

...Gateway Observations for Savannah International...

CITY           SKY/WX    TMP DP  RH WIND       PRES   REMARKS
Savannah Arpt  FAIR      58  47  66 E8        30.31R
Atlanta        FAIR      60  35  39 SE3       30.29R
Charlotte      FAIR      55  31  39 CALM      30.32R
Dallas DFW     PTCLDY    63  43  48 SE14      30.05R
Houston Bush   MOCLDY    61  50  67 SE9       30.12S
Wash National  FAIR      53  26  35 N7        30.36R
Wash Dulles    FAIR      51  26  37 NW9       30.35R
Baltimore      FAIR      48  27  44 W3        30.33R
Philadelphia   FAIR      45  23  42 N15G23    30.38R
Newark         FAIR      44  23  43 NW16G24   30.35R
Laguardia      FAIR      44  24  45 N13       30.34R
J F K          FAIR      42  23  46 N20       30.35R
Boston         FAIR      43  27  53 NW13G23   30.25R
Pittsburg      FAIR      43  21  41 N7        30.42R
Akron          FAIR      40  20  44 N5        30.44S WCI  37
Cleveland      FAIR      44  20  38 NE5       30.48S
Cincinnati     FAIR      54  23  30 NE9       30.40S
Columbus       FAIR      46  27  46 NE8       30.43R
Detroit        FAIR      46  28  49 E5        30.46R
Chicago O`Hare MOCLDY    49  11  21 E6        30.44R
Minneapolis    MOCLDY    48  20  32 SW6       30.44R
Indianapolis   FAIR      51  21  30 E7        30.40S
Toronto Canada CLEAR     37  23  56 N7        30.42F WCI  32

$$




USA.gov is the U.S. government's official web portal to all federal, state and local government web resources and services.